Beckley, WV

11:46 AM EST on December 12, 2019 (GMT -0500)
Raleigh County Memorial

Weather History for KBKW - June, 2019

Change the Weather History Date:

Saturday, June 8, 2019

  Actual Average Record
Temperature  
Mean Temperature 65 °F 66 °F  
Max Temperature 67 °F 75 °F 89 °F (1933)
Min Temperature 63 °F 56 °F 34 °F (1977)
Degree Days  
Heating Degree Days 0 2  
Month to date heating degree days 9 20  
Since 1 June heating degree days 9 20  
Since 1 July heating degree days 4760 5321  
Cooling Degree Days 0 3  
Month to date cooling degree days 13 18  
Year to date cooling degree days 133 59  
Since 1 June cooling degree days 13 18  
Growing Degree Days 14 (Base 50)    
Moisture  
Dew Point 59 °F    
Average Humidity 84    
Maximum Humidity 90    
Minimum Humidity 78    
Precipitation  
Precipitation 0.01 in 0.13 in 1.71 in (1995)
Month to date precipitation 0.99 1.10  
Year to date precipitation 21.33 18.26  
Sea Level Pressure  
Sea Level Pressure 29.97 in    
Wind  
Wind Speed 14 mph (ESE)    
Max Wind Speed 25 mph    
Max Gust Speed 32 mph    
Visibility 10 miles    
Events Rain    
T = Trace of Precipitation, MM = Missing Value Source: NWS Daily Summary

Daily Weather History Graph

Daily Weather History Graph

Search for Another Location

Airport or City:

Astronomy

Jun. 08, 2019 Rise Set
Actual Time 6:02 AM EDT 8:44 PM EDT
Civil Twilight 5:31 AM EDT 9:15 PM EDT
Nautical Twilight 4:52 AM EDT 9:54 PM EDT
Astronomical Twilight 4:08 AM EDT 10:38 PM EDT
Moon 11:26 AM EDT (6/8) 12:47 AM EDT (6/8)
Length of Visible Light 15h 44m
Length of Day
14h 42m
Waxing Crescent, 32% of the Moon is Illuminated
Jun 8
Waxing Crescent
Jun 10
First Quarter
Jun 17
Full
Jun 25
Last Quarter
Jul 2
New

Hourly Weather History & Observations

Time (EDT) Temp. Dew Point Humidity Pressure Visibility Wind Dir Wind Speed Gust Speed Precip Events Conditions
12:17 AM 64.9 °F 61.0 °F 87% 29.95 in 10.0 mi ESE 10.4 mph - N/A   Overcast
12:38 AM 64.9 °F 61.0 °F 87% 29.95 in 10.0 mi ESE 11.5 mph 21.9 mph N/A   Overcast
12:51 AM 64.9 °F 61.0 °F 87% 29.87 in 10.0 mi ESE 13.8 mph 21.9 mph N/A   Overcast
1:51 AM 64.9 °F 60.1 °F 84% 29.87 in 10.0 mi ESE 12.7 mph 18.4 mph N/A   Overcast
2:51 AM 64.9 °F 60.1 °F 84% 29.86 in 10.0 mi East 10.4 mph - N/A   Overcast
3:14 AM 64.9 °F 60.1 °F 84% 29.93 in 10.0 mi East 6.9 mph - N/A   Overcast
3:51 AM 64.9 °F 60.1 °F 84% 29.86 in 10.0 mi East 6.9 mph - N/A   Overcast
4:51 AM 64.9 °F 60.1 °F 84% 29.87 in 10.0 mi ESE 8.1 mph - N/A   Overcast
5:51 AM 64.9 °F 60.1 °F 84% 29.88 in 10.0 mi ESE 10.4 mph - N/A   Overcast
6:51 AM 64.0 °F 60.1 °F 87% 29.90 in 10.0 mi East 6.9 mph - N/A   Overcast
7:36 AM 64.0 °F 60.1 °F 87% 29.99 in 10.0 mi ESE 8.1 mph - 0.00 in   Overcast
7:51 AM 64.0 °F 60.1 °F 87% 29.93 in 10.0 mi SE 10.4 mph - 0.00 in   Overcast
8:28 AM 64.0 °F 60.1 °F 87% 30.00 in 8.0 mi ESE 11.5 mph - N/A   Overcast
8:51 AM 64.0 °F 60.1 °F 87% 29.94 in 9.0 mi ESE 10.4 mph - N/A   Overcast
9:34 AM 64.0 °F 60.1 °F 87% 30.02 in 10.0 mi ESE 13.8 mph - 0.00 in   Overcast
9:42 AM 64.0 °F 59.0 °F 84% 30.02 in 10.0 mi ESE 11.5 mph 23.0 mph 0.00 in Rain Light Rain
9:51 AM 64.0 °F 60.1 °F 87% 29.95 in 9.0 mi ESE 11.5 mph 20.7 mph 0.00 in Rain Light Rain
10:51 AM 66.0 °F 60.1 °F 81% 29.95 in 10.0 mi ESE 16.1 mph 28.8 mph 0.01 in   Mostly Cloudy
11:51 AM 64.9 °F 60.1 °F 84% 29.96 in 10.0 mi ESE 18.4 mph 26.5 mph 0.00 in Rain Light Rain
12:13 PM 64.9 °F 60.1 °F 84% 30.04 in 10.0 mi East 15.0 mph 26.5 mph 0.00 in Rain Light Rain
12:39 PM 64.9 °F 60.1 °F 84% 30.04 in 10.0 mi ESE 13.8 mph 24.2 mph 0.00 in Rain Light Rain
12:51 PM 64.9 °F 60.1 °F 84% 29.97 in 10.0 mi ESE 15.0 mph 23.0 mph 0.00 in Rain Light Rain
1:08 PM 64.9 °F 60.1 °F 84% 30.04 in 10.0 mi ESE 13.8 mph 20.7 mph 0.00 in Rain Light Rain
1:35 PM 64.0 °F 59.0 °F 84% 30.05 in 10.0 mi East 16.1 mph 21.9 mph 0.00 in Rain Light Rain
1:51 PM 64.0 °F 59.0 °F 84% 29.99 in 10.0 mi ESE 12.7 mph - 0.00 in   Overcast
2:11 PM 64.0 °F 57.9 °F 80% 30.05 in 10.0 mi ESE 17.3 mph 24.2 mph N/A   Overcast
2:51 PM 64.0 °F 57.0 °F 78% 29.97 in 10.0 mi ESE 18.4 mph 27.6 mph N/A   Overcast
3:37 PM 64.9 °F 57.9 °F 78% 30.03 in 10.0 mi East 16.1 mph 26.5 mph N/A   Overcast
3:51 PM 64.9 °F 57.9 °F 78% 29.97 in 10.0 mi ESE 13.8 mph 23.0 mph N/A   Overcast
4:08 PM 64.9 °F 57.9 °F 78% 30.04 in 10.0 mi ESE 15.0 mph 24.2 mph N/A   Overcast
4:51 PM 64.0 °F 57.0 °F 78% 29.97 in 10.0 mi SE 16.1 mph 24.2 mph N/A   Overcast
5:04 PM 64.0 °F 57.0 °F 78% 30.04 in 10.0 mi SE 19.6 mph 25.3 mph N/A   Overcast
5:51 PM 63.0 °F 57.0 °F 81% 29.97 in 10.0 mi ESE 17.3 mph 28.8 mph N/A   Overcast
6:51 PM 64.0 °F 57.0 °F 78% 29.97 in 10.0 mi ESE 17.3 mph 27.6 mph N/A   Overcast
7:51 PM 64.0 °F 57.9 °F 80% 29.97 in 10.0 mi ESE 16.1 mph 24.2 mph N/A   Overcast
8:51 PM 63.0 °F 57.9 °F 84% 29.97 in 10.0 mi ESE 18.4 mph - N/A   Overcast
9:51 PM 64.0 °F 57.9 °F 80% 29.98 in 10.0 mi ESE 15.0 mph 28.8 mph N/A   Overcast
10:04 PM 64.0 °F 57.9 °F 80% 30.05 in 10.0 mi ESE 16.1 mph 29.9 mph N/A   Overcast
10:51 PM 64.0 °F 57.9 °F 80% 29.99 in 10.0 mi ESE 17.3 mph 28.8 mph N/A   Overcast
11:51 PM 63.0 °F 59.0 °F 87% 30.00 in 10.0 mi ESE 11.5 mph 23.0 mph N/A   Overcast